TJS-10

Last updated on Thu Nov 21 2024 00:02:45 GMT+0000 (Coordinated Universal Time)

1 58204U 23169A 24325.64159749 .00000010 00000+0 00000+0 0 9990 2 58204 1.0589 87.2631 0005489 167.0855 210.5725 1.00272950 3921
UTC large
Height (km)
Speed (km/s)
/
Latitude / Longitude
Inclination (degrees)
Orbital Period (minutes)
Azimuth
Elevation
Range (km)
Doppler Factor

Next 0 passes for location: London (51.5072 / 0.1276)

Sorry there are no passes over London.